sat.trackr.live / text

‹ back to catalog

STARLINK-5709

NORAD 55621 · 2023-020BE

PAYLOAD ACTIVE UNKNOWN

§ Identity

Operator
Country
US
Launch date
2023-02-12
Launch site
AFETR
Launch vehicle
Mass (kg)
RCS (m²)

Purposes: comms

External: N2YO · Heavens-Above · Gunter

§ Orbital elements

Epoch: 2026-05-24T19:26:06.808992Z

Period
94.27 min
Inclination
43.0019°
Eccentricity
0.0001570
Mean motion
15.27574630 rev/d
Perigee alt
482.0 km
Apogee alt
484.1 km
Semi-major
6,861.2 km
B*
-1.3259e-5
RAAN
284.1046°
Arg perigee
274.0469°
Mean anomaly
86.0203°
Rev number
18,068

§ Raw data

STARLINK-57091 55621U 23020BE  26144.80980103 -.00000627  00000+0 -13259-4 0  99922 55621  43.0019 284.1046 0001570 274.0469  86.0203 15.27574630180680

JSON: /api/v1/satellites/55621 · /tle

For live sub-satellite position, see the globe view (requires WebGL).

§ Visibility from observer

Set your observer location to see the next 7 days of passes ≥ 10°. The values pass through the URL so the page stays shareable.

No JS? Fill the form by hand. The geolocation button needs JavaScript.